記事タイトル:宇都宮-Jones 芸西での観測 

最新の情報は「更新」や「再読み込み」ボタンを押してリロードしてご覧ください。

書き込み欄へ  ヘルプ
お名前: 村岡健治   
芸西の新しい観測を加えて、軌道改良しました。

Comet C/2000 W1 ( Utsunomiya-Jones )
T 2000 Dec. 26.55927 TT                                 Muraoka 
q   0.3211746            (2000.0)            P               Q
                   Peri.   51.51006     +0.74896055     -0.65957624
                   Node    10.76614     -0.66261098     -0.74583792
e   1.0            Incl.  160.16561     +0.00218702     -0.09319319
From 112 observations 2000 Nov. 26-Dec. 15, mean residual 0".80.
[2000年12月17日 12時21分4秒]

お名前: 関 勉   
2000UT          R.A (2000) Decl    m1
Dec.11.37857   19 35 55.88 -28 41 55.3   6.9      372
    12.37836   19 35 51.78 -27 28 15.4            372
    14.38287   19 34 51.00 -25 20 36.4            372
    15.37535   19 33 56.40 -24 25 53.5   6.8      372

宇都宮-Jonesの芸西での観測です。大変に低くここ2〜3日が限界です。
東に5'ほどの尾を見せています。(20cmR60X)タトル・ジャコビニ・クレサクが
増光したとのことですが12月の初めにはいったん暗くなっていました。
これからどうなるのでしょう。
[2000年12月17日 0時51分18秒]

この記事への返信をどうぞ。
氏名
E-mail URL



記事一覧に戻る